Showing default

FLOCK 4Q 34, 58316

Orbit data source: Space-Track

FLOCK 4Q 34, 58316 is a payload satellite owned by Planet (US) in SSO that was launched on Sat, 11 Nov 2023 UTC via an FALCON 9 launch vehicle from the Air Force Western Test Range (AFWTR). Payload-class satellites include a variety of spacecraft equipped with specific instruments for various scientific and technological missions. These include communications satellites like Starlink; space stations such as the ISS; scientific satellites like the Hubble; Earth observation satellites from companies like Planet Labs, Umbra, and HawkEye 360; GPS; miniature CubeSats for education and research; and military/defense satellites.

Loading next visibility...
Identifier
58316, 2023-174BN
Orbit
SSO
Country
Flag of USUS
Related business
Manufacturer
Planet
Mission
Non-operational Commercial Imaging
Bus & Motor
CUBESAT 3U, Unknown motor
Mass
5.7 kg wet, 5.7 kg dry
Launch date (UTC)
2023-11-11 (2 years ago)
Launch vehicle
FALCON 9
Launch site
Air Force Western Test Range (AFWTR)
Object type
Payload
Rocket body
Debris
Shape & HBR
Box + 2 Pan, 1.0 m
Radar Cross Section
0.072 m², Medium (>0.1 m² and < 1m²)

Expand to show TLE details & history
Last TLE update: 6 hours ago

TLE from 6 hours ago
0 FLOCK 4Q 34
1 58316U 23174BN  26126.79889426  .00119181  00000-0  12374-2 0  9990
2 58316  97.3813 218.9320 0007068 276.6696  83.3759 15.64223869139491
Epoch: 2026-05-06T19:10Z
TLE epoch observation values (Epoch: 2026-05-06T19:10:24.464Z)
Latitude
0.00005°
Longitude
66.67585°
Altitude
378.075 km
Speed
7.683 km/s
True Right ascension
14h 35m 43s
True Declination
0° 00' 00"
Sunlit
Object was in full shadow at epoch
Visualization orbit readout
Latitude
Unknown
Longitude
Unknown
Altitude
Unknown
Speed
Unknown
Apparent Right ascension
Unknown
Apparent Declination
Unknown
Sunlit
N/A
Visualization observer readout
Local Sidereal Time
09:19:33
Azimuth
Unknown
Elevation
Unknown
Doppler factor
Unknown
Orbital elements
Apogee altitude
377.149 km
Perigee altitude
367.607 km
Semi-major axis
6,750.515 km
Eccentricity
0.00071
Inclination
97.3813°
RAAN
218.932°
Arg. of periapsis
276.6696°
True anomaly
83.45636°
Mean anomaly
83.3759°
Eccentric anomaly
83.41613°
Mean motion
3.91325 °/min
Orbital period
92 mins
BSTAR
0.0012374
Loading maneuver chart data...
Computing Atmospheric mass density...
Loading historical data...
Loading historical data...
Loading historical data...
Loading historical data...
Loading historical data...
Loading historical data...
Loading historical data...

Documentation

Showing up to 5 results
|